Location: アルンシュタイン
(50.0000°N, 10.0000°E)
Time: 16:02:27
(UTC+02:00)

Vanguard 1 - Pass Details

Date: 19 September 2024
Orbit: 649 x 3825 km, 34.3° (Epoch: 02 October)

Event Time Altitude Azimuth Distance (km) Brightness Sun altitude
Rises 14:14:15 0° 245° (WSW) 6,351 14.7 39.5°
Reaches altitude 10° 14:19:46 10° 236° (WSW) 4,761 14.4 39.2°
Maximum altitude 14:29:20 28° 184° (S) 2,494 13.8 38.6°
Drops below altitude 10° 14:35:23 10° 128° (SE) 2,931 12.7 38.2°
Sets 14:37:54 0° 115° (ESE) 3,609 13.0 38.0°
